Temp
7 7 7 7 8 8 8 9 9 8 9 9 9 9 10 10 11 13 15 17 16 17 17 17 17 17 17 17 18 18 14 13 17 18 21 22 21 24 24 25 25 27 27 27 28
7 7 7 7 7 7 8 8 9 9 9 9 9 9 10 9 10 13 15 16 16 16 16 16 17 17 16 17 17 16 13 15 18 20 20 22 21 22 23 23 24 25 27 27 26
7 7 7 7 7 8 8 8 8 9 9 9 8 8 9 9 11 12 12 12 12 12 14 15 16 16 16 16 17 16 16 18 19 21 22 21 21 22 22 21 24 24 25 26 26
7 7 7 7 8 8 8 8 8 8 8 8 9 9 9 8 10 13 13 13 13 13 13 14 14 14 13 14 17 15 17 19 20 20 20 20 21 21 21 22 23 23 24 24 25
7 7 7 8 8 9 9 9 9 8 8 8 8 7 8 8 12 12 12 12 13 13 13 13 13 14 12 14 16 16 16 18 19 19 20 20 19 19 20 22 23 23 23 23 24
7 7 8 8 9 9 9 9 8 9 9 9 9 7 5 2 11 10 11 12 12 11 12 12 13 14 15 14 16 16 17 17 18 18 19 19 19 19 21 22 22 22 22 23 24
8 8 8 9 9 9 9 9 9 10 9 9 9 8 8 11 11 10 10 10 11 11 11 12 13 12 14 15 16 16 15 15 16 17 17 19 19 19 21 21 21 21 22 22 23
8 8 8 8 8 8 8 8 8 8 9 9 9 8 8 11 11 11 11 11 11 10 11 12 12 12 13 15 15 15 14 15 17 16 18 19 18 21 22 22 21 22 22 23 24
8 8 8 8 8 8 9 8 8 8 8 8 7 6 10 11 12 12 12 12 12 11 11 12 12 12 13 12 11 12 15 13 15 17 17 18 18 20 23 22 21 22 22 23 23
8 9 9 8 8 8 8 9 9 9 8 7 7 5 11 12 12 12 11 11 12 11 10 10 12 10 9 10 12 12 12 14 14 16 17 16 18 19 20 21 20 21 22 22 22
8 9 9 9 9 8 8 8 7 8 7 7 8 8 9 12 11 12 12 10 11 11 9 11 9 9 11 12 13 13 13 13 15 16 17 16 17 18 18 19 19 19 20 21 21
8 9 9 9 9 8 7 6 5 5 5 10 10 8 11 10 9 12 11 10 11 9 10 9 8 11 12 12 12 11 12 11 13 14 15 14 14 15 15 16 18 19 19 20 21
8 9 10 9 9 8 7 6 6 6 5 8 10 10 11 11 11 11 11 10 10 9 8 8 9 12 12 12 12 11 11 12 12 14 14 14 14 15 16 16 18 19 19 20 21
8 9 9 9 9 8 7 6 6 7 3 7 10 11 11 10 10 11 11 11 10 9 10 8 9 11 11 11 11 10 12 13 13 12 11 15 13 15 16 16 17 17 19 20 20
9 9 9 9 9 8 7 6 7 7 4 9 9 10 9 9 10 11 11 10 9 9 10 9 10 11 10 11 12 11 12 12 12 11 12 13 11 16 15 15 16 17 19 19 20
9 10 10 9 9 8 7 7 7 4 3 7 9 8 8 8 10 11 10 11 10 9 8 9 11 11 10 12 12 13 11 11 11 9 9 11 12 14 15 16 17 17 18 20 20
10 10 10 9 8 8 7 7 4 3 7 7 7 8 7 7 9 9 8 8 8 7 8 9 9 10 11 11 12 12 9 7 8 7 10 12 11 14 15 16 16 17 17 20 21
9 10 9 9 8 8 7 4 4 4 6 8 8 8 6 8 8 8 7 5 7 7 7 6 8 9 11 10 9 9 8 7 9 8 10 13 12 14 15 17 17 18 19 20 21
10 9 9 9 8 8 7 2 2 5 7 7 7 6 6 8 7 6 6 6 7 6 6 6 8 10 12 12 11 10 8 10 10 10 9 10 13 14 16 17 17 17 18 20 21
9 9 8 8 8 7 3 5 5 6 7 7 5 6 5 5 5 5 6 8 7 8 7 7 6 8 11 12 11 10 10 9 7 10 9 10 11 13 15 15 16 16 15 18 20
9 8 7 7 7 7 1 3 5 7 7 6 6 6 6 5 5 5 6 8 8 7 6 6 7 9 10 10 9 10 9 10 8 7 10 10 11 11 14 14 14 13 16 17 18
7 4 7 8 5 0 0 4 6 6 6 6 6 6 6 5 5 5 6 8 8 7 6 6 5 6 8 9 9 9 9 9 9 9 9 8 9 13 14 13 12 14 16 16 17
4 5 7 7 -1 -1 1 4 5 6 5 5 5 6 6 4 4 5 6 8 8 7 6 6 5 6 7 8 8 8 8 8 7 7 7 9 11 14 13 14 13 14 15 16 14
4 1 5 5 3 2 2 4 5 5 5 6 5 6 5 4 6 4 5 7 7 7 8 7 5 5 5 7 7 6 8 8 7 6 9 10 11 13 14 12 13 14 15 15 14
4 0 2 -1 0 1 2 3 5 5 5 5 4 5 5 4 5 5 5 6 6 7 6 6 5 4 5 6 6 6 6 7 7 8 7 10 10 10 11 11 13 13 14 15 13
3 2 2 1 1 1 2 4 5 5 4 5 4 5 5 4 4 4 4 4 4 5 6 4 4 6 5 6 6 6 7 7 7 8 8 8 9 10 12 12 13 14 14 15 14
2 1 0 1 -0 0 0 4 4 3 5 4 5 4 4 5 5 5 4 4 4 5 5 5 4 3 5 7 6 5 7 8 8 8 9 7 9 11 12 11 12 13 15 15 14
Height
1516 1514 1511 1509 1507 1505 1503 1501 1500 1498 1496 1494 1491 1488 1486 1482 1481 1479 1476 1479 1481 1480 1482 1484 1485 1488 1489 1489 1491 1493 1501 1504 1490 1487 1479 1476 1477 1472 1472 1471 1470 1471 1471 1471 1470
1515 1512 1510 1508 1506 1503 1501 1500 1498 1496 1494 1491 1489 1487 1484 1481 1476 1472 1472 1471 1474 1473 1476 1480 1482 1486 1485 1485 1486 1487 1495 1486 1475 1474 1476 1472 1473 1474 1471 1467 1467 1469 1469 1470 1472
1515 1512 1509 1506 1504 1501 1499 1497 1495 1494 1492 1489 1486 1482 1480 1479 1474 1469 1469 1468 1470 1471 1471 1475 1476 1479 1479 1479 1479 1477 1476 1471 1467 1472 1474 1469 1466 1466 1467 1468 1466 1464 1466 1467 1471
1515 1511 1508 1505 1502 1499 1496 1494 1492 1490 1488 1486 1484 1481 1478 1479 1481 1470 1470 1468 1467 1467 1468 1469 1471 1472 1473 1472 1472 1475 1466 1466 1462 1469 1471 1471 1467 1464 1464 1463 1463 1462 1464 1465 1466
1515 1511 1508 1504 1501 1498 1495 1492 1490 1487 1485 1483 1481 1480 1481 1481 1470 1469 1466 1465 1465 1465 1465 1465 1466 1467 1467 1465 1469 1465 1462 1464 1462 1466 1466 1468 1461 1462 1454 1456 1454 1456 1457 1458 1459
1515 1511 1507 1503 1500 1497 1494 1492 1489 1486 1484 1482 1479 1477 1478 1478 1468 1464 1462 1461 1461 1461 1461 1461 1460 1463 1464 1461 1461 1456 1459 1460 1460 1462 1463 1465 1458 1459 1451 1454 1452 1454 1451 1450 1451
1515 1511 1508 1504 1501 1497 1494 1492 1488 1484 1482 1480 1478 1477 1475 1467 1465 1462 1460 1458 1457 1455 1454 1457 1460 1462 1458 1458 1455 1454 1460 1458 1457 1459 1460 1463 1454 1441 1451 1451 1449 1448 1445 1443 1445
1514 1511 1507 1503 1500 1498 1494 1491 1487 1483 1482 1479 1477 1474 1467 1464 1462 1461 1459 1457 1455 1452 1450 1454 1457 1457 1457 1454 1453 1456 1459 1463 1448 1457 1457 1460 1434 1437 1441 1444 1441 1441 1439 1439 1437
1513 1509 1506 1502 1499 1496 1492 1489 1486 1482 1480 1478 1477 1475 1466 1462 1459 1456 1454 1453 1452 1451 1449 1452 1453 1453 1454 1458 1462 1457 1451 1454 1453 1445 1452 1454 1423 1435 1438 1441 1435 1434 1434 1434 1434
1510 1507 1504 1500 1497 1495 1491 1488 1483 1481 1480 1476 1476 1476 1465 1462 1457 1453 1451 1450 1450 1450 1450 1451 1451 1450 1452 1455 1448 1449 1452 1445 1449 1442 1443 1447 1425 1435 1437 1437 1431 1430 1427 1427 1426
1509 1506 1503 1500 1497 1495 1492 1486 1485 1483 1479 1478 1474 1473 1464 1460 1456 1451 1448 1447 1447 1450 1452 1449 1452 1445 1438 1441 1439 1445 1447 1447 1442 1438 1439 1439 1431 1432 1432 1429 1427 1424 1421 1420 1418
1507 1504 1502 1500 1498 1495 1493 1492 1494 1495 1482 1472 1469 1468 1462 1460 1455 1449 1447 1446 1443 1449 1448 1451 1446 1442 1440 1441 1444 1446 1449 1451 1446 1440 1442 1440 1434 1431 1429 1423 1422 1418 1415 1414 1413
1506 1503 1501 1499 1497 1496 1493 1492 1491 1489 1488 1471 1468 1465 1463 1459 1453 1449 1447 1445 1443 1446 1447 1451 1442 1437 1439 1439 1443 1444 1447 1447 1450 1442 1435 1438 1428 1423 1415 1414 1411 1408 1407 1406 1406
1505 1501 1499 1498 1497 1494 1492 1490 1488 1486 1492 1477 1468 1465 1461 1456 1452 1448 1446 1447 1442 1442 1439 1443 1436 1436 1438 1439 1440 1446 1439 1439 1442 1448 1454 1436 1437 1419 1411 1405 1406 1404 1401 1396 1398
1502 1498 1496 1494 1495 1493 1492 1488 1485 1486 1499 1474 1471 1467 1462 1460 1454 1447 1445 1440 1439 1437 1438 1436 1432 1432 1434 1433 1431 1434 1436 1441 1444 1447 1447 1444 1455 1394 1402 1401 1395 1392 1388 1387 1388
1500 1495 1493 1493 1493 1491 1488 1485 1485 1495 1502 1476 1471 1469 1465 1458 1453 1446 1444 1440 1437 1434 1433 1428 1425 1427 1427 1427 1427 1426 1433 1439 1442 1451 1457 1444 1452 1393 1403 1390 1385 1384 1382 1380 1381
1496 1491 1490 1491 1492 1489 1485 1484 1495 1503 1484 1480 1474 1469 1467 1463 1453 1447 1443 1441 1439 1439 1431 1425 1422 1419 1421 1428 1426 1427 1439 1455 1459 1462 1444 1430 1446 1394 1383 1382 1382 1381 1380 1377 1377
1494 1491 1491 1491 1490 1488 1485 1486 1496 1494 1487 1479 1475 1469 1469 1460 1453 1449 1446 1449 1437 1437 1434 1435 1427 1417 1415 1420 1427 1431 1436 1444 1440 1446 1438 1428 1425 1393 1382 1374 1378 1381 1377 1376 1374
1493 1492 1491 1491 1489 1488 1486 1500 1504 1490 1483 1480 1474 1471 1467 1462 1460 1455 1448 1448 1440 1443 1442 1435 1425 1418 1409 1409 1417 1425 1432 1423 1432 1429 1436 1421 1400 1388 1380 1379 1376 1379 1377 1374 1370
1493 1492 1492 1491 1489 1487 1489 1493 1490 1485 1482 1480 1480 1472 1471 1466 1464 1460 1451 1444 1442 1441 1441 1437 1433 1423 1413 1408 1411 1415 1417 1431 1441 1434 1434 1416 1408 1398 1384 1381 1378 1379 1376 1370 1365
1493 1492 1492 1490 1489 1488 1499 1494 1486 1483 1481 1481 1475 1472 1469 1468 1465 1461 1452 1443 1441 1441 1440 1437 1434 1420 1416 1416 1417 1417 1420 1420 1426 1432 1424 1419 1407 1381 1375 1379 1381 1378 1374 1370 1363
1493 1493 1492 1491 1492 1494 1497 1491 1487 1481 1479 1477 1473 1471 1469 1467 1465 1460 1452 1444 1442 1441 1442 1438 1439 1433 1420 1416 1417 1419 1420 1421 1424 1423 1418 1423 1409 1372 1374 1375 1375 1373 1370 1366 1361
1495 1493 1493 1491 1502 1501 1494 1490 1486 1482 1479 1476 1474 1471 1468 1470 1468 1458 1449 1442 1440 1442 1441 1440 1442 1435 1425 1420 1418 1420 1419 1419 1423 1426 1423 1417 1393 1371 1371 1373 1377 1375 1369 1364 1361
1500 1498 1493 1493 1497 1498 1496 1489 1483 1481 1477 1475 1472 1469 1469 1466 1460 1456 1449 1445 1438 1440 1439 1439 1441 1439 1441 1427 1427 1427 1420 1418 1422 1428 1411 1395 1396 1385 1376 1381 1376 1371 1368 1364 1359
1503 1503 1502 1502 1498 1498 1496 1490 1484 1481 1477 1474 1471 1468 1467 1459 1456 1449 1446 1443 1440 1439 1436 1436 1434 1439 1434 1428 1426 1424 1422 1418 1417 1412 1416 1393 1397 1395 1380 1382 1379 1374 1367 1361 1358
1507 1506 1504 1501 1497 1495 1491 1486 1482 1480 1481 1472 1471 1465 1463 1460 1456 1446 1445 1443 1439 1437 1433 1436 1435 1429 1428 1425 1422 1419 1413 1410 1406 1405 1398 1399 1394 1394 1382 1379 1375 1372 1367 1361 1359
1507 1506 1505 1499 1497 1497 1492 1484 1480 1481 1474 1472 1467 1463 1457 1450 1446 1440 1437 1432 1436 1434 1434 1433 1432 1434 1423 1414 1417 1415 1399 1395 1391 1389 1391 1393 1389 1388 1377 1378 1374 1368 1364 1358 1358
Wind_Speed
16 15 14 14 14 14 14 14 15 16 15 16 17 20 22 23 25 27 29 25 23 21 21 23 12 8 15 14 14 7 1 5 7 8 5 4 1 4 4 4 5 4 4 16 1
16 17 17 17 17 17 17 16 16 16 17 19 19 20 21 23 27 28 23 24 26 26 25 22 21 16 12 12 11 7 5 10 6 10 4 5 4 4 4 6 2 11 9 9 10
18 18 18 19 18 18 19 19 18 17 16 18 21 23 23 23 23 2 2 7 2 7 18 25 21 18 15 11 13 10 12 14 8 13 15 11 13 12 5 4 14 10 8 13 13
18 19 19 20 20 20 20 20 19 20 20 20 19 20 22 19 6 6 8 10 18 18 12 19 22 9 8 11 15 5 17 22 10 15 5 9 17 13 18 21 26 25 25 29 26
18 19 20 21 20 19 18 17 18 19 20 20 20 17 14 12 19 14 14 22 21 18 13 9 22 12 8 7 10 15 4 16 32 20 20 18 21 15 27 31 35 35 35 35 31
20 21 21 21 20 19 14 14 16 17 18 19 19 16 11 5 15 24 23 20 20 18 12 10 9 23 7 7 18 4 15 19 15 14 10 6 16 11 11 25 29 28 38 36 35
21 21 21 19 16 14 12 14 17 19 18 13 14 14 16 18 19 14 14 16 17 17 22 15 15 11 5 2 20 8 5 4 7 6 7 16 25 31 30 30 29 38 45 42 39
23 22 23 21 18 13 14 15 16 10 11 18 17 9 11 14 22 17 23 23 22 23 16 18 10 19 11 5 1 4 5 15 15 8 7 12 33 18 31 30 35 37 36 36 37
23 23 24 21 19 17 18 19 21 16 16 22 10 8 9 19 20 24 23 21 22 21 13 11 13 12 6 4 3 4 15 11 8 9 9 16 31 7 10 16 24 26 31 33 35
24 23 23 20 19 17 19 22 21 9 11 15 6 6 9 20 23 23 18 12 12 20 9 9 8 4 4 6 15 9 10 2 6 6 14 14 29 15 24 25 26 29 35 37 38
23 21 19 17 14 15 19 23 15 5 20 10 17 16 23 22 23 22 19 12 6 2 3 5 4 13 16 13 10 4 2 1 0 3 4 17 21 16 13 21 19 27 32 39 42
21 19 15 13 10 13 12 9 9 11 13 9 13 18 17 16 13 25 16 4 6 4 3 4 12 6 3 6 8 6 1 3 5 9 5 5 14 10 7 10 20 27 31 33 42
21 18 13 10 9 12 6 11 13 13 4 13 14 12 11 19 12 17 9 3 1 2 4 7 5 4 6 5 5 5 8 3 6 7 12 9 16 15 12 17 27 33 35 36 40
23 19 13 6 7 17 4 14 15 6 3 6 8 5 19 25 2 30 8 7 4 6 3 5 6 5 6 5 7 4 6 2 1 3 6 3 12 14 13 19 15 20 31 37 34
24 18 13 8 11 14 15 18 7 2 4 10 5 12 31 5 16 9 24 9 8 6 2 9 5 2 4 6 7 12 11 9 6 6 3 1 5 14 4 13 15 19 35 39 40
25 19 10 5 9 14 17 17 3 5 5 6 9 11 12 11 12 11 14 10 5 3 6 17 4 6 7 6 4 1 5 4 3 3 7 6 7 25 10 16 12 13 28 33 35
24 13 4 1 7 15 19 3 4 4 5 6 8 11 15 5 8 5 9 7 3 4 4 3 7 7 5 4 0 3 4 2 1 2 11 14 9 24 5 5 5 3 15 18 20
17 7 5 4 7 14 17 4 4 4 5 6 9 17 5 6 7 7 7 6 4 3 3 3 4 5 6 9 7 6 8 4 6 5 5 7 12 11 12 21 21 15 18 20 20
14 5 5 5 8 13 9 4 6 3 4 7 12 3 4 6 3 6 4 3 4 4 4 3 4 15 3 5 11 4 4 6 2 1 0 4 11 11 13 18 14 4 14 21 22
15 4 5 6 9 12 4 2 3 4 7 7 4 3 5 6 6 5 3 2 4 4 5 4 4 2 13 1 5 7 6 4 2 4 5 4 5 8 7 6 6 8 12 29 34
11 1 7 6 10 3 3 4 4 7 5 4 4 5 5 5 4 4 5 5 1 3 4 4 2 2 2 2 3 3 1 2 4 4 4 2 5 7 6 6 3 7 16 28 35
8 2 6 9 3 2 1 4 7 5 7 4 4 4 4 4 5 5 5 3 1 2 5 3 1 4 4 5 3 4 4 1 5 5 7 3 7 3 7 7 8 13 24 32 31
11 4 6 6 2 3 5 4 5 4 4 3 4 3 3 3 6 5 7 5 11 1 2 3 2 4 6 3 3 1 3 5 1 1 5 5 7 4 9 13 17 20 28 32 17
8 4 4 6 3 2 4 4 6 11 6 5 5 4 2 4 8 6 9 8 6 2 15 4 3 4 4 0 2 5 5 3 4 3 6 18 13 20 21 15 19 29 28 30 14
8 2 2 4 3 5 4 4 7 7 4 8 4 5 10 8 14 15 5 5 10 20 6 3 5 4 8 12 12 13 14 13 12 10 8 5 7 4 18 15 17 26 28 29 10
7 5 4 7 12 5 4 3 8 8 6 9 5 16 15 11 14 21 15 7 6 6 3 2 4 5 8 12 15 16 15 16 18 16 19 16 20 6 21 19 21 28 26 22 14
10 5 3 5 5 3 3 4 9 14 10 13 15 15 14 14 18 30 32 32 18 8 4 2 2 1 4 3 6 9 18 20 18 19 11 17 11 7 16 9 16 23 24 19 18
Wind_Direction
3 2 358 351 347 342 338 336 332 332 329 324 322 320 318 315 303 294 280 276 276 258 254 249 249 228 196 206 203 196 157 228 213 171 237 201 343 206 285 240 314 316 35 11 331
4 0 356 352 347 341 337 334 332 329 326 324 320 318 319 321 319 306 289 268 258 251 246 236 237 223 201 209 200 181 186 224 195 209 240 256 273 274 282 6 249 294 287 326 12
1 358 355 350 345 339 334 333 333 329 323 319 320 321 321 327 326 317 357 151 117 316 254 233 224 219 210 200 199 194 224 228 223 215 239 273 294 287 332 293 263 285 288 290 296
359 356 352 349 344 340 338 339 335 330 327 324 319 316 320 334 313 356 277 280 295 303 306 241 215 201 183 204 202 225 227 234 245 225 246 247 270 272 258 251 268 279 283 289 283
354 351 350 347 344 343 344 343 337 334 332 329 327 322 327 315 286 323 283 275 282 289 279 260 216 210 190 196 212 233 201 227 245 251 256 264 261 262 274 279 280 283 281 281 284
352 350 349 347 348 347 351 348 337 327 326 327 328 328 337 279 325 312 298 284 284 286 258 253 220 220 274 215 200 147 227 240 257 255 252 264 274 267 267 278 279 281 280 277 277
354 351 349 348 351 348 348 350 337 328 324 342 349 335 308 299 339 357 16 11 343 307 266 236 229 226 266 290 238 250 273 284 230 229 251 260 274 256 258 266 265 272 273 277 276
355 352 350 349 352 350 347 358 346 347 352 345 336 318 273 348 344 342 329 319 344 339 272 239 223 241 233 271 300 185 161 243 242 180 228 164 255 254 262 251 252 254 263 271 278
355 353 352 349 348 351 344 345 344 318 325 333 333 315 299 340 340 339 326 315 317 327 304 227 229 217 181 182 360 247 233 217 246 210 189 196 255 181 219 244 252 264 273 274 272
353 353 353 349 346 347 339 336 335 309 296 325 301 314 309 327 335 342 342 323 309 318 303 247 230 193 152 165 213 211 224 235 197 202 198 216 251 251 260 271 273 273 275 275 275
351 351 353 349 345 347 340 343 15 341 324 281 274 278 289 323 326 339 336 288 275 344 218 235 194 217 220 230 261 47 100 65 18 252 245 224 248 252 251 258 263 266 266 269 271
350 349 352 349 334 358 3 46 16 327 302 310 305 280 320 322 305 330 332 236 145 199 302 328 243 237 208 195 246 269 237 219 273 258 224 280 286 278 255 259 257 261 261 263 273
348 342 346 352 346 337 359 12 343 331 275 294 315 303 335 341 309 319 319 293 186 197 215 212 261 204 215 195 204 199 230 208 218 301 286 307 285 278 263 240 255 258 260 263 265
349 335 335 336 349 347 11 345 329 299 42 284 334 345 335 340 309 332 343 256 215 218 225 221 255 229 208 236 215 201 170 184 327 189 256 94 287 269 268 263 251 257 261 261 266
344 334 328 311 336 345 338 339 332 129 348 322 319 325 336 322 310 325 330 242 244 227 191 234 188 239 210 209 188 238 227 244 226 250 284 260 317 279 209 262 255 252 254 256 256
341 326 330 301 338 343 337 337 127 48 267 332 332 331 349 311 319 309 332 299 267 242 270 244 247 178 206 237 196 199 169 144 130 126 243 183 196 278 247 247 245 261 255 259 262
345 333 359 12 343 347 339 350 37 114 327 330 315 327 325 277 312 317 327 308 255 311 229 281 230 228 183 216 214 174 74 97 145 183 233 175 189 239 275 306 208 282 294 276 278
356 22 54 33 341 345 342 54 71 253 267 302 308 312 282 346 318 320 317 332 310 298 330 313 268 184 187 187 186 185 160 174 184 177 238 175 226 239 236 260 274 286 293 294 306
355 69 60 14 349 345 343 53 198 231 300 308 314 286 292 338 292 335 292 261 352 56 341 289 323 330 274 169 158 198 165 207 34 267 143 214 261 289 284 286 283 297 316 323 325
354 118 40 5 350 341 65 262 238 229 296 296 268 254 299 318 326 331 294 287 328 46 162 275 271 201 304 15 172 159 170 107 355 207 241 255 248 232 302 306 314 342 318 331 329
356 96 0 328 334 358 122 241 289 306 6 298 270 283 276 310 288 282 271 294 345 313 317 290 302 267 186 269 139 336 308 153 153 175 220 308 262 216 229 88 352 324 332 332 327
3 51 16 340 23 50 103 306 298 308 325 281 264 256 270 316 294 281 259 234 106 6 315 300 297 283 272 290 30 168 243 253 204 251 252 159 268 311 116 58 8 339 335 335 329
349 320 349 8 72 322 308 286 267 286 288 306 295 295 354 318 291 258 270 289 302 319 270 333 326 314 321 19 50 228 232 220 159 71 218 236 250 285 317 346 353 332 326 330 311
351 1 349 49 66 58 320 302 307 317 271 261 250 262 308 267 266 281 277 304 319 224 293 273 228 229 223 355 42 302 299 302 187 226 245 242 276 296 300 333 330 322 316 323 287
8 18 2 308 326 307 234 278 304 322 273 298 300 238 309 296 303 272 260 292 301 305 284 232 252 217 257 271 277 268 263 263 251 240 237 281 278 280 300 311 308 303 305 326 231
7 359 332 292 294 269 279 257 290 325 310 302 259 308 308 289 283 285 287 269 249 288 237 153 253 214 253 256 248 254 251 250 253 247 256 259 267 249 282 299 306 301 304 315 230
351 321 286 268 302 331 249 280 314 314 285 282 287 302 299 291 287 282 272 267 249 252 250 239 238 274 258 16 333 274 243 232 244 241 237 242 250 249 270 289 288 296 299 297 229